Time,TemperatureF,DewpointF,PressureIn,WindDirection,WindDirectionDegrees,WindSpeedMPH,WindSpeedGustMPH,Humidity,HourlyPrecipIn,Conditions,Clouds,dailyrainin,SoftwareType,DateUTC
2013-02-28 03:30:00,27.4,22.0,30.19,NNW,348,12.0,12.0,80,0.00,,CLR,0.00,VWS V14.01,2013-02-28 09:30:00,
2013-02-28 03:35:00,27.4,22.0,30.19,North,10,10.0,13.0,80,0.00,,CLR,0.00,VWS V14.01,2013-02-28 09:35:00,
2013-02-28 03:40:00,27.4,21.8,30.19,North,355,13.0,14.0,79,0.00,,CLR,0.00,VWS V14.01,2013-02-28 09:40:00,
2013-02-28 03:45:00,27.4,21.8,30.19,North,350,10.0,14.0,79,0.00,,CLR,0.00,VWS V14.01,2013-02-28 09:45:00,
2013-02-28 03:50:00,27.3,21.7,30.19,North,360,12.0,13.0,79,0.00,,CLR,0.00,VWS V14.01,2013-02-28 09:50:00,
2013-02-28 03:55:00,27.2,21.9,30.19,North,355,11.0,14.0,80,0.00,,CLR,0.00,VWS V14.01,2013-02-28 09:55:00,
2013-02-28 04:00:00,27.1,21.8,30.20,North,355,11.0,15.0,80,0.00,,CLR,0.00,VWS V14.01,2013-02-28 10:00:00,
2013-02-28 04:05:00,27.1,21.8,30.20,North,355,12.0,13.0,80,0.00,,CLR,0.00,VWS V14.01,2013-02-28 10:05:00,
2013-02-28 04:10:00,27.0,21.7,30.20,North,355,11.0,15.0,80,0.00,,CLR,0.00,VWS V14.01,2013-02-28 10:10:00,
2013-02-28 04:15:00,27.0,21.7,30.20,North,5,10.0,14.0,80,0.00,,CLR,0.00,VWS V14.01,2013-02-28 10:15:00,
2013-02-28 04:20:00,26.9,21.6,30.21,North,360,10.0,14.0,80,0.00,,CLR,0.00,VWS V14.01,2013-02-28 10:20:00,
2013-02-28 04:25:00,26.8,21.8,30.21,NNE,13,7.0,13.0,81,0.00,,CLR,0.00,VWS V14.01,2013-02-28 10:25:00,
2013-02-28 04:30:00,26.8,21.5,30.21,North,360,10.0,14.0,80,0.00,,CLR,0.00,VWS V14.01,2013-02-28 10:30:00,
2013-02-28 04:32:00,27.4,21.8,30.19,North,11,11.0,11.0,79,0.00,,OVC028,0.00,VWS V14.01,2013-02-28 10:32:00,
2013-02-28 04:33:00,27.4,22.0,30.19,North,5,12.0,12.0,80,0.00,,OVC028,0.00,VWS V14.01,2013-02-28 10:33:00,
2013-02-28 04:35:00,26.8,21.5,30.21,NNE,15,14.0,16.0,80,0.00,,CLR,0.00,VWS V14.01,2013-02-28 10:35:00,
2013-02-28 04:38:00,27.4,22.0,30.19,North,10,10.0,13.0,80,0.00,,OVC028,0.00,VWS V14.01,2013-02-28 10:38:00,
2013-02-28 04:40:00,26.9,21.3,30.21,NNE,14,11.0,17.0,79,0.00,,CLR,0.00,VWS V14.01,2013-02-28 10:40:00,
2013-02-28 04:43:00,27.4,21.8,30.19,North,355,13.0,14.0,79,0.00,,OVC028,0.00,VWS V14.01,2013-02-28 10:43:00,
2013-02-28 04:45:00,26.8,21.2,30.21,North,11,7.0,12.0,79,0.00,,CLR,0.00,VWS V14.01,2013-02-28 10:45:00,
2013-02-28 04:48:00,27.4,21.8,30.19,North,350,10.0,14.0,79,0.00,,OVC028,0.00,VWS V14.01,2013-02-28 10:48:00,
2013-02-28 04:50:00,26.7,21.4,30.21,NNE,19,12.0,12.0,80,0.00,,CLR,0.00,VWS V14.01,2013-02-28 10:50:00,
2013-02-28 04:53:00,27.3,21.7,30.19,North,360,12.0,13.0,79,0.00,,OVC028,0.00,VWS V14.01,2013-02-28 10:53:00,
2013-02-28 04:55:00,26.7,21.4,30.21,NNE,14,7.0,12.0,80,0.00,,CLR,0.00,VWS V14.01,2013-02-28 10:55:00,
2013-02-28 04:58:00,27.2,21.9,30.19,North,355,11.0,14.0,80,0.00,,OVC028,0.00,VWS V14.01,2013-02-28 10:58:00,
2013-02-28 05:00:00,26.6,21.3,30.21,North,5,7.0,11.0,80,0.00,,CLR,0.00,VWS V14.01,2013-02-28 11:00:00,
2013-02-28 05:03:00,27.1,21.8,30.20,North,355,11.0,15.0,80,0.00,,OVC028,0.00,VWS V14.01,2013-02-28 11:03:00,
2013-02-28 05:05:00,26.5,21.2,30.22,North,355,7.0,9.0,80,0.00,,CLR,0.00,VWS V14.01,2013-02-28 11:05:00,
2013-02-28 05:08:00,27.1,21.8,30.20,North,360,9.0,12.0,80,0.00,,OVC028,0.00,VWS V14.01,2013-02-28 11:08:00,
2013-02-28 05:10:00,26.5,21.2,30.22,North,350,10.0,12.0,80,0.00,,CLR,0.00,VWS V14.01,2013-02-28 11:10:00,
2013-02-28 05:13:00,27.0,21.7,30.20,North,11,12.0,12.0,80,0.00,,OVC028,0.00,VWS V14.01,2013-02-28 11:13:00,
2013-02-28 05:15:00,26.4,21.4,30.22,North,355,8.0,11.0,81,0.00,,CLR,0.00,VWS V14.01,2013-02-28 11:15:00,
2013-02-28 05:18:00,27.0,21.7,30.20,NNE,18,10.0,12.0,80,0.00,,OVC028,0.00,VWS V14.01,2013-02-28 11:18:00,
2013-02-28 05:20:00,26.3,21.3,30.22,North,355,8.0,11.0,81,0.00,,CLR,0.00,VWS V14.01,2013-02-28 11:20:00,
2013-02-28 05:23:00,26.9,21.6,30.21,NNE,13,9.0,11.0,80,0.00,,OVC028,0.00,VWS V14.01,2013-02-28 11:23:00,
2013-02-28 05:25:00,26.3,21.3,30.22,North,360,9.0,12.0,81,0.00,,CLR,0.00,VWS V14.01,2013-02-28 11:25:00,
2013-02-28 05:28:00,26.8,21.8,30.20,North,9,12.0,13.0,81,0.00,,OVC028,0.00,VWS V14.01,2013-02-28 11:28:00,
2013-02-28 05:30:00,26.2,21.5,30.22,North,5,9.0,11.0,82,0.00,,CLR,0.00,VWS V14.01,2013-02-28 11:30:00,
2013-02-28 05:33:00,26.8,21.5,30.21,North,11,12.0,12.0,80,0.00,,OVC028,0.00,VWS V14.01,2013-02-28 11:33:00,
2013-02-28 05:35:00,26.2,21.5,30.22,NNE,17,11.0,14.0,82,0.00,,CLR,0.00,VWS V14.01,2013-02-28 11:35:00,
2013-02-28 05:38:00,26.9,21.3,30.21,NNE,14,14.0,14.0,79,0.00,,OVC026,0.00,VWS V14.01,2013-02-28 11:38:00,
2013-02-28 05:40:00,26.2,21.2,30.22,NNE,13,10.0,15.0,81,0.00,,CLR,0.00,VWS V14.01,2013-02-28 11:40:00,
2013-02-28 05:43:00,26.9,21.3,30.21,North,9,10.0,11.0,79,0.00,,OVC026,0.00,VWS V14.01,2013-02-28 11:43:00,
2013-02-28 05:45:00,26.4,20.8,30.22,NE,38,13.0,14.0,79,0.00,,CLR,0.00,VWS V14.01,2013-02-28 11:45:00,
2013-02-28 05:48:00,26.8,21.2,30.21,North,11,9.0,10.0,79,0.00,,OVC026,0.00,VWS V14.01,2013-02-28 11:48:00,
2013-02-28 05:50:00,26.4,20.8,30.23,NNE,16,12.0,14.0,79,0.00,,CLR,0.00,VWS V14.01,2013-02-28 11:50:00,
2013-02-28 05:53:00,26.7,21.4,30.21,North,5,8.0,12.0,80,0.00,,OVC026,0.00,VWS V14.01,2013-02-28 11:53:00,
2013-02-28 05:55:00,26.3,21.0,30.23,North,5,9.0,14.0,80,0.00,,CLR,0.00,VWS V14.01,2013-02-28 11:55:00,
2013-02-28 05:58:00,26.6,21.3,30.21,NNE,18,7.0,10.0,80,0.00,,OVC026,0.00,VWS V14.01,2013-02-28 11:58:00,
2013-02-28 06:00:00,26.2,20.9,30.23,North,351,10.0,12.0,80,0.00,,CLR,0.00,VWS V14.01,2013-02-28 12:00:00,
2013-02-28 06:04:00,26.6,21.3,30.22,North,350,8.0,8.0,80,0.00,,OVC026,0.00,VWS V14.01,2013-02-28 12:04:00,
2013-02-28 06:05:00,26.2,21.2,30.23,NNE,14,12.0,13.0,81,0.00,,CLR,0.00,VWS V14.01,2013-02-28 12:05:00,
2013-02-28 06:09:00,26.5,21.2,30.22,North,355,7.0,9.0,80,0.00,,OVC026,0.00,VWS V14.01,2013-02-28 12:09:00,
2013-02-28 06:10:00,26.2,21.2,30.23,North,10,11.0,13.0,81,0.00,,CLR,0.00,VWS V14.01,2013-02-28 12:10:00,
2013-02-28 06:14:00,26.5,21.5,30.22,North,5,9.0,11.0,81,0.00,,OVC026,0.00,VWS V14.01,2013-02-28 12:14:00,
2013-02-28 06:15:00,26.1,21.1,30.24,North,5,12.0,13.0,81,0.00,,CLR,0.00,VWS V14.01,2013-02-28 12:15:00,
2013-02-28 06:19:00,26.4,21.4,30.22,NNW,348,9.0,10.0,81,0.00,,OVC026,0.00,VWS V14.01,2013-02-28 12:19:00,
2013-02-28 06:20:00,26.1,21.1,30.23,North,360,12.0,15.0,81,0.00,,CLR,0.00,VWS V14.01,2013-02-28 12:20:00,
2013-02-28 06:24:00,26.3,21.3,30.22,North,5,10.0,10.0,81,0.00,,OVC026,0.00,VWS V14.01,2013-02-28 12:24:00,
2013-02-28 06:25:00,26.1,21.1,30.24,North,11,11.0,14.0,81,0.00,,CLR,0.00,VWS V14.01,2013-02-28 12:25:00,
2013-02-28 06:29:00,26.2,21.2,30.22,North,5,11.0,11.0,81,0.00,,OVC026,0.00,VWS V14.01,2013-02-28 12:29:00,
2013-02-28 06:30:00,26.0,20.7,30.24,North,5,10.0,14.0,80,0.00,,CLR,0.00,VWS V14.01,2013-02-28 12:30:00,
2013-02-28 06:34:00,26.2,21.5,30.22,North,11,8.0,11.0,82,0.00,,OVC026,0.00,VWS V14.01,2013-02-28 12:34:00,
2013-02-28 06:35:00,26.0,21.0,30.24,North,10,7.0,14.0,81,0.00,,CLR,0.00,VWS V14.01,2013-02-28 12:35:00,
2013-02-28 06:39:00,26.2,21.2,30.22,NNE,32,11.0,12.0,81,0.00,,OVC026,0.00,VWS V14.01,2013-02-28 12:39:00,
2013-02-28 06:40:00,25.9,20.9,30.24,NNE,22,9.0,10.0,81,0.00,,CLR,0.00,VWS V14.01,2013-02-28 12:40:00,
2013-02-28 06:44:00,26.2,21.2,30.22,NNE,13,14.0,14.0,81,0.00,,OVC026,0.00,VWS V14.01,2013-02-28 12:44:00,
2013-02-28 06:45:00,25.8,20.5,30.24,North,5,7.0,12.0,80,0.00,,CLR,0.00,VWS V14.01,2013-02-28 12:45:00,
2013-02-28 06:49:00,26.4,20.8,30.22,NNE,22,13.0,14.0,79,0.00,,OVC026,0.00,VWS V14.01,2013-02-28 12:49:00,
2013-02-28 06:50:00,25.9,20.6,30.24,NNE,25,9.0,17.0,80,0.00,,CLR,0.00,VWS V14.01,2013-02-28 12:50:00,
2013-02-28 06:54:00,26.4,21.1,30.23,North,355,6.0,14.0,80,0.00,,OVC026,0.00,VWS V14.01,2013-02-28 12:54:00,
2013-02-28 06:55:00,25.9,20.6,30.24,NNE,19,14.0,14.0,80,0.00,,CLR,0.00,VWS V14.01,2013-02-28 12:55:00,
2013-02-28 06:59:00,26.3,21.0,30.23,NNW,346,6.0,10.0,80,0.00,,OVC026,0.00,VWS V14.01,2013-02-28 12:59:00,
2013-02-28 07:00:00,26.0,20.4,30.24,NNE,17,10.0,16.0,79,0.00,,CLR,0.00,VWS V14.01,2013-02-28 13:00:00,
2013-02-28 07:04:00,26.2,20.9,30.23,North,355,10.0,10.0,80,0.00,,OVC026,0.00,VWS V14.01,2013-02-28 13:04:00,
2013-02-28 07:05:00,26.0,20.1,30.25,NNE,25,16.0,16.0,78,0.00,,CLR,0.00,VWS V14.01,2013-02-28 13:05:00,
2013-02-28 07:09:00,26.2,21.2,30.23,NNE,13,11.0,13.0,81,0.00,,OVC026,0.00,VWS V14.01,2013-02-28 13:09:00,
2013-02-28 07:10:00,26.1,20.2,30.25,NNE,30,15.0,17.0,78,0.00,,CLR,0.00,VWS V14.01,2013-02-28 13:10:00,
2013-02-28 07:14:00,26.2,21.2,30.24,North,360,11.0,13.0,81,0.00,,OVC026,0.00,VWS V14.01,2013-02-28 13:14:00,
2013-02-28 07:15:00,26.1,20.2,30.25,NNE,24,15.0,18.0,78,0.00,,CLR,0.00,VWS V14.01,2013-02-28 13:15:00,
2013-02-28 07:19:00,26.1,21.1,30.24,North,11,10.0,13.0,81,0.00,,OVC026,0.00,VWS V14.01,2013-02-28 13:19:00,
2013-02-28 07:20:00,26.0,20.1,30.25,NNE,28,11.0,15.0,78,0.00,,CLR,0.00,VWS V14.01,2013-02-28 13:20:00,
2013-02-28 07:24:00,26.1,21.1,30.24,North,9,11.0,13.0,81,0.00,,OVC026,0.00,VWS V14.01,2013-02-28 13:24:00,
2013-02-28 07:25:00,26.0,20.1,30.25,NNE,19,13.0,15.0,78,0.00,,CLR,0.00,VWS V14.01,2013-02-28 13:25:00,
2013-02-28 07:29:00,26.1,20.8,30.24,NNE,19,12.0,14.0,80,0.00,,OVC026,0.00,VWS V14.01,2013-02-28 13:29:00,
2013-02-28 07:30:00,26.0,20.4,30.25,NNE,19,11.0,15.0,79,0.00,,CLR,0.00,VWS V14.01,2013-02-28 13:30:00,
2013-02-28 07:34:00,26.0,20.7,30.24,NNE,24,11.0,14.0,80,0.00,,OVC022,0.00,VWS V14.01,2013-02-28 13:34:00,
2013-02-28 07:35:00,26.0,20.1,30.25,NNE,24,12.0,15.0,78,0.00,,CLR,0.00,VWS V14.01,2013-02-28 13:35:00,
2013-02-28 07:40:00,25.9,20.9,30.24,North,360,10.0,10.0,81,0.00,,OVC022,0.00,VWS V14.01,2013-02-28 13:40:00,
2013-02-28 07:45:00,25.8,20.8,30.24,NNE,17,6.0,10.0,81,0.00,,OVC022,0.00,VWS V14.01,2013-02-28 13:45:00,
2013-02-28 07:50:00,25.9,20.6,30.24,North,360,12.0,12.0,80,0.00,,OVC022,0.00,VWS V14.01,2013-02-28 13:50:00,
2013-02-28 07:55:00,25.9,20.6,30.24,NNE,13,12.0,13.0,80,0.00,,OVC022,0.00,VWS V14.01,2013-02-28 13:55:00,
2013-02-28 08:00:00,25.9,20.3,30.24,NNE,28,11.0,14.0,79,0.00,,OVC022,0.00,VWS V14.01,2013-02-28 14:00:00,
2013-02-28 08:05:00,26.0,20.4,30.25,NNE,17,10.0,12.0,79,0.00,,OVC022,0.00,VWS V14.01,2013-02-28 14:05:00,
2013-02-28 08:10:00,26.0,20.1,30.25,NNE,32,12.0,17.0,78,0.00,,OVC022,0.00,VWS V14.01,2013-02-28 14:10:00,
2013-02-28 08:15:00,26.1,20.2,30.25,NNE,14,15.0,16.0,78,0.00,,OVC022,0.00,VWS V14.01,2013-02-28 14:15:00,
2013-02-28 08:20:00,26.0,20.1,30.25,North,9,13.0,15.0,78,0.00,,OVC022,0.00,VWS V14.01,2013-02-28 14:20:00,
2013-02-28 08:25:00,26.0,20.1,30.25,North,360,12.0,15.0,78,0.00,,OVC022,0.00,VWS V14.01,2013-02-28 14:25:00,
2013-02-28 08:30:00,26.0,20.1,30.25,NNE,17,11.0,13.0,78,0.00,,OVC022,0.00,VWS V14.01,2013-02-28 14:30:00,
2013-02-28 08:35:00,26.0,20.1,30.25,NNE,14,11.0,15.0,78,0.00,,OVC022,0.00,VWS V14.01,2013-02-28 14:35:00,
2013-02-28 08:40:00,26.0,20.4,30.25,NNE,13,11.0,14.0,79,0.00,,OVC022,0.00,VWS V14.01,2013-02-28 14:40:00,
2013-02-28 08:45:00,26.1,20.5,30.25,North,360,10.0,11.0,79,0.00,,OVC022,0.00,VWS V14.01,2013-02-28 14:45:00,
2013-02-28 08:50:00,26.1,20.5,30.25,NNE,13,8.0,13.0,79,0.00,,OVC022,0.00,VWS V14.01,2013-02-28 14:50:00,
2013-02-28 08:55:00,26.1,20.5,30.26,NNE,20,12.0,15.0,79,0.00,,OVC022,0.00,VWS V14.01,2013-02-28 14:55:00,
2013-02-28 09:00:00,26.1,20.2,30.26,NNE,24,12.0,13.0,78,0.00,,OVC022,0.00,VWS V14.01,2013-02-28 15:00:00,
2013-02-28 09:05:00,26.1,20.5,30.26,NNE,25,12.0,13.0,79,0.00,,OVC022,0.00,VWS V14.01,2013-02-28 15:05:00,
2013-02-28 09:10:00,26.1,20.2,30.26,NNE,26,7.0,12.0,78,0.00,,OVC022,0.00,VWS V14.01,2013-02-28 15:10:00,
2013-02-28 09:15:00,25.7,19.2,30.27,NE,47,14.0,18.0,76,0.00,,CLR,0.00,VWS V14.01,2013-02-28 15:15:00,
2013-02-28 09:16:00,26.2,20.3,30.26,NNE,15,10.0,11.0,78,0.00,,OVC022,0.00,VWS V14.01,2013-02-28 15:16:00,
2013-02-28 09:20:00,25.7,19.2,30.27,NNE,13,16.0,19.0,76,0.00,,CLR,0.00,VWS V14.01,2013-02-28 15:20:00,
2013-02-28 09:21:00,26.2,20.3,30.26,NNE,14,10.0,14.0,78,0.00,,OVC022,0.00,VWS V14.01,2013-02-28 15:21:00,
2013-02-28 09:25:00,25.6,19.1,30.27,NNE,28,17.0,19.0,76,0.00,,CLR,0.00,VWS V14.01,2013-02-28 15:25:00,
2013-02-28 09:26:00,26.1,20.5,30.26,North,11,12.0,12.0,79,0.00,,OVC022,0.00,VWS V14.01,2013-02-28 15:26:00,
2013-02-28 09:30:00,25.7,19.2,30.28,NNE,24,14.0,18.0,76,0.00,,CLR,0.00,VWS V14.01,2013-02-28 15:30:00,
2013-02-28 09:31:00,26.0,20.4,30.26,NNE,13,15.0,17.0,79,0.00,,OVC022,0.00,VWS V14.01,2013-02-28 15:31:00,
2013-02-28 09:35:00,25.7,19.2,30.28,NE,34,11.0,17.0,76,0.00,,CLR,0.00,VWS V14.01,2013-02-28 15:35:00,
2013-02-28 09:36:00,25.9,20.0,30.26,North,5,9.0,16.0,78,0.00,,OVC022,0.00,VWS V14.01,2013-02-28 15:36:00,
2013-02-28 09:40:00,25.8,19.3,30.28,NNE,30,13.0,17.0,76,0.00,,CLR,0.00,VWS V14.01,2013-02-28 15:40:00,
2013-02-28 09:41:00,25.9,20.0,30.26,NNE,13,14.0,16.0,78,0.00,,OVC022,0.00,VWS V14.01,2013-02-28 15:41:00,
2013-02-28 09:45:00,25.8,19.3,30.28,NE,41,11.0,18.0,76,0.00,,CLR,0.00,VWS V14.01,2013-02-28 15:45:00,
2013-02-28 09:46:00,25.8,19.9,30.26,NNE,17,13.0,18.0,78,0.00,,OVC022,0.00,VWS V14.01,2013-02-28 15:46:00,
2013-02-28 09:50:00,26.0,19.2,30.28,NE,41,8.0,14.0,75,0.00,,CLR,0.00,VWS V14.01,2013-02-28 15:50:00,
2013-02-28 09:51:00,25.8,19.9,30.26,North,10,16.0,17.0,78,0.00,,OVC022,0.00,VWS V14.01,2013-02-28 15:51:00,
2013-02-28 09:55:00,26.1,19.6,30.28,NNE,24,14.0,16.0,76,0.00,,CLR,0.00,VWS V14.01,2013-02-28 15:55:00,
2013-02-28 09:56:00,25.7,19.8,30.26,North,355,15.0,17.0,78,0.00,,OVC022,0.00,VWS V14.01,2013-02-28 15:56:00,
2013-02-28 10:00:00,26.1,19.3,30.28,NNE,19,12.0,16.0,75,0.00,,CLR,0.00,VWS V14.01,2013-02-28 16:00:00,
2013-02-28 10:01:00,25.7,19.8,30.26,North,360,12.0,15.0,78,0.00,,OVC022,0.00,VWS V14.01,2013-02-28 16:01:00,
2013-02-28 10:05:00,26.1,19.3,30.28,NE,38,13.0,17.0,75,0.00,,CLR,0.00,VWS V14.01,2013-02-28 16:05:00,
2013-02-28 10:06:00,25.8,19.6,30.27,NNE,15,14.0,15.0,77,0.00,,OVC022,0.00,VWS V14.01,2013-02-28 16:06:00,
2013-02-28 10:10:00,26.3,19.2,30.28,NNE,29,7.0,15.0,74,0.00,,CLR,0.00,VWS V14.01,2013-02-28 16:10:00,
2013-02-28 10:11:00,25.8,19.6,30.27,NNE,32,15.0,17.0,77,0.00,,OVC022,0.00,VWS V14.01,2013-02-28 16:11:00,
2013-02-28 10:15:00,26.5,19.4,30.28,NNE,17,10.0,12.0,74,0.00,,CLR,0.00,VWS V14.01,2013-02-28 16:15:00,
2013-02-28 10:16:00,25.7,19.2,30.27,NNE,32,12.0,18.0,76,0.00,,OVC022,0.00,VWS V14.01,2013-02-28 16:16:00,
2013-02-28 10:20:00,26.6,19.8,30.28,NNE,28,14.0,15.0,75,0.00,,CLR,0.00,VWS V14.01,2013-02-28 16:20:00,
2013-02-28 10:21:00,25.7,18.9,30.28,NNE,23,16.0,17.0,75,0.00,,OVC022,0.00,VWS V14.01,2013-02-28 16:21:00,
2013-02-28 10:25:00,26.6,19.4,30.28,NNE,29,9.0,15.0,74,0.00,,CLR,0.00,VWS V14.01,2013-02-28 16:25:00,
2013-02-28 10:27:00,25.6,19.1,30.27,NNE,26,13.0,19.0,76,0.00,,OVC022,0.00,VWS V14.01,2013-02-28 16:27:00,
2013-02-28 10:30:00,26.8,19.6,30.28,NNE,32,12.0,15.0,74,0.00,,CLR,0.00,VWS V14.01,2013-02-28 16:30:00,
2013-02-28 10:32:00,25.6,19.1,30.28,NNE,26,12.0,18.0,76,0.00,,OVC024,0.00,VWS V14.01,2013-02-28 16:32:00,
2013-02-28 10:35:00,26.7,19.5,30.28,NNE,19,10.0,14.0,74,0.00,,CLR,0.00,VWS V14.01,2013-02-28 16:35:00,
2013-02-28 10:37:00,25.7,19.2,30.28,North,11,15.0,17.0,76,0.00,,OVC024,0.00,VWS V14.01,2013-02-28 16:37:00,
2013-02-28 10:40:00,26.8,19.3,30.28,NE,37,10.0,15.0,73,0.00,,CLR,0.00,VWS V14.01,2013-02-28 16:40:00,
2013-02-28 10:42:00,25.8,19.3,30.28,NNE,28,17.0,17.0,76,0.00,,OVC024,0.00,VWS V14.01,2013-02-28 16:42:00,
2013-02-28 10:45:00,26.9,19.1,30.28,NNE,26,10.0,13.0,72,0.00,,CLR,0.00,VWS V14.01,2013-02-28 16:45:00,
2013-02-28 10:47:00,25.8,19.3,30.28,North,5,16.0,17.0,76,0.00,,OVC024,0.00,VWS V14.01,2013-02-28 16:47:00,
2013-02-28 10:50:00,27.0,19.5,30.28,NNE,19,7.0,12.0,73,0.00,,CLR,0.00,VWS V14.01,2013-02-28 16:50:00,
2013-02-28 10:52:00,25.9,19.1,30.28,NNE,23,14.0,14.0,75,0.00,,OVC024,0.00,VWS V14.01,2013-02-28 16:52:00,
2013-02-28 10:55:00,27.0,20.1,30.28,NNE,26,10.0,11.0,75,0.00,,CLR,0.00,VWS V14.01,2013-02-28 16:55:00,
2013-02-28 10:57:00,26.1,19.3,30.28,NNE,18,11.0,15.0,75,0.00,,OVC024,0.00,VWS V14.01,2013-02-28 16:57:00,
2013-02-28 11:00:00,27.0,20.5,30.28,NNE,15,12.0,12.0,76,0.00,,CLR,0.00,VWS V14.01,2013-02-28 17:00:00,
2013-02-28 11:02:00,26.1,19.3,30.28,NNE,26,13.0,16.0,75,0.00,,OVC024,0.00,VWS V14.01,2013-02-28 17:02:00,
2013-02-28 11:05:00,27.0,20.5,30.28,NNE,19,12.0,13.0,76,0.00,,CLR,0.00,VWS V14.01,2013-02-28 17:05:00,
2013-02-28 11:07:00,26.1,19.3,30.28,NE,48,13.0,17.0,75,0.00,,OVC024,0.00,VWS V14.01,2013-02-28 17:07:00,
2013-02-28 11:10:00,27.1,20.5,30.28,North,360,10.0,12.0,76,0.00,,CLR,0.00,VWS V14.01,2013-02-28 17:10:00,
2013-02-28 11:12:00,26.3,19.1,30.28,NNE,33,11.0,15.0,74,0.00,,OVC024,0.00,VWS V14.01,2013-02-28 17:12:00,
2013-02-28 11:15:00,27.2,20.6,30.28,North,360,12.0,13.0,76,0.00,,CLR,0.00,VWS V14.01,2013-02-28 17:15:00,
2013-02-28 11:17:00,26.5,19.4,30.28,NNE,17,11.0,12.0,74,0.00,,OVC024,0.00,VWS V14.01,2013-02-28 17:17:00,
2013-02-28 11:20:00,27.2,21.0,30.28,North,5,9.0,13.0,77,0.00,,CLR,0.00,VWS V14.01,2013-02-28 17:20:00,
2013-02-28 11:22:00,26.6,19.8,30.28,NNE,22,11.0,15.0,75,0.00,,OVC024,0.00,VWS V14.01,2013-02-28 17:22:00,
2013-02-28 11:25:00,27.1,20.9,30.28,North,9,12.0,12.0,77,0.00,,CLR,0.00,VWS V14.01,2013-02-28 17:25:00,
2013-02-28 11:27:00,26.6,19.4,30.28,NNE,32,8.0,15.0,74,0.00,,OVC024,0.00,VWS V14.01,2013-02-28 17:27:00,
2013-02-28 11:30:00,27.1,20.9,30.28,North,5,11.0,13.0,77,0.00,,CLR,0.00,VWS V14.01,2013-02-28 17:30:00,
2013-02-28 11:32:00,26.8,20.0,30.28,NNE,24,15.0,15.0,75,0.00,,OVC024,0.00,VWS V14.01,2013-02-28 17:32:00,
2013-02-28 11:35:00,27.0,20.8,30.28,North,355,9.0,13.0,77,0.00,,CLR,0.00,VWS V14.01,2013-02-28 17:35:00,
2013-02-28 11:37:00,26.7,19.5,30.28,NNE,32,12.0,14.0,74,0.00,,OVC024,0.00,VWS V14.01,2013-02-28 17:37:00,
2013-02-28 11:40:00,27.1,20.9,30.28,North,10,11.0,13.0,77,0.00,,CLR,0.00,VWS V14.01,2013-02-28 17:40:00,
2013-02-28 11:42:00,26.8,19.3,30.28,NNE,33,7.0,15.0,73,0.00,,OVC024,0.00,VWS V14.01,2013-02-28 17:42:00,
2013-02-28 11:45:00,27.0,20.8,30.27,NNE,21,11.0,13.0,77,0.00,,CLR,0.00,VWS V14.01,2013-02-28 17:45:00,
2013-02-28 11:47:00,26.9,19.1,30.28,NE,34,11.0,13.0,72,0.00,,OVC024,0.00,VWS V14.01,2013-02-28 17:47:00,
2013-02-28 11:50:00,26.9,20.7,30.27,NNE,32,7.0,12.0,77,0.00,,CLR,0.00,VWS V14.01,2013-02-28 17:50:00,
2013-02-28 11:53:00,27.0,19.5,30.28,NNE,28,7.0,12.0,73,0.00,,OVC024,0.00,VWS V14.01,2013-02-28 17:53:00,
2013-02-28 11:55:00,27.0,21.1,30.27,North,10,10.0,12.0,78,0.00,,CLR,0.00,VWS V14.01,2013-02-28 17:55:00,
2013-02-28 11:58:00,27.0,20.1,30.28,NNE,24,9.0,11.0,75,0.00,,OVC024,0.00,VWS V14.01,2013-02-28 17:58:00,
2013-02-28 12:00:00,27.0,20.8,30.27,NNE,12,10.0,12.0,77,0.00,,CLR,0.00,VWS V14.01,2013-02-28 18:00:00,
2013-02-28 12:03:00,27.0,20.5,30.28,NNE,22,9.0,11.0,76,0.00,,OVC024,0.00,VWS V14.01,2013-02-28 18:03:00,
2013-02-28 12:05:00,26.9,20.7,30.27,North,360,10.0,13.0,77,0.00,,CLR,0.00,VWS V14.01,2013-02-28 18:05:00,
2013-02-28 12:08:00,27.0,20.5,30.28,NNE,18,9.0,13.0,76,0.00,,OVC024,0.00,VWS V14.01,2013-02-28 18:08:00,
2013-02-28 12:10:00,27.1,20.9,30.27,North,9,10.0,13.0,77,0.00,,CLR,0.00,VWS V14.01,2013-02-28 18:10:00,
2013-02-28 12:13:00,27.1,20.5,30.28,North,360,11.0,12.0,76,0.00,,OVC024,0.00,VWS V14.01,2013-02-28 18:13:00,
2013-02-28 12:15:00,27.1,20.9,30.27,North,9,9.0,14.0,77,0.00,,CLR,0.00,VWS V14.01,2013-02-28 18:15:00,
2013-02-28 12:18:00,27.2,20.6,30.28,North,360,11.0,12.0,76,0.00,,OVC024,0.00,VWS V14.01,2013-02-28 18:18:00,
2013-02-28 12:20:00,27.2,20.6,30.28,NNE,14,11.0,12.0,76,0.00,,CLR,0.00,VWS V14.01,2013-02-28 18:20:00,
2013-02-28 12:23:00,27.2,21.0,30.28,North,5,9.0,13.0,77,0.00,,OVC024,0.00,VWS V14.01,2013-02-28 18:23:00,
2013-02-28 12:25:00,27.3,21.1,30.28,North,5,12.0,12.0,77,0.00,,CLR,0.00,VWS V14.01,2013-02-28 18:25:00,
2013-02-28 12:28:00,27.1,20.9,30.27,North,360,10.0,12.0,77,0.00,,OVC024,0.00,VWS V14.01,2013-02-28 18:28:00,
2013-02-28 12:30:00,27.2,21.0,30.28,North,360,13.0,13.0,77,0.00,,CLR,0.00,VWS V14.01,2013-02-28 18:30:00,
2013-02-28 12:33:00,27.0,20.8,30.28,North,360,10.0,12.0,77,0.00,,OVC026,0.00,VWS V14.01,2013-02-28 18:33:00,
2013-02-28 12:35:00,27.3,21.1,30.28,North,355,12.0,13.0,77,0.00,,CLR,0.00,VWS V14.01,2013-02-28 18:35:00,
2013-02-28 12:38:00,27.1,20.9,30.27,North,5,11.0,11.0,77,0.00,,OVC026,0.00,VWS V14.01,2013-02-28 18:38:00,
2013-02-28 12:40:00,27.2,21.0,30.28,NNE,19,12.0,14.0,77,0.00,,CLR,0.00,VWS V14.01,2013-02-28 18:40:00,
2013-02-28 12:43:00,27.1,20.9,30.28,North,360,9.0,11.0,77,0.00,,OVC026,0.00,VWS V14.01,2013-02-28 18:43:00,
2013-02-28 12:45:00,27.2,21.0,30.28,North,360,12.0,12.0,77,0.00,,CLR,0.00,VWS V14.01,2013-02-28 18:45:00,
2013-02-28 12:48:00,27.0,20.8,30.27,NNE,20,10.0,11.0,77,0.00,,OVC026,0.00,VWS V14.01,2013-02-28 18:48:00,
2013-02-28 12:50:00,27.4,21.1,30.28,North,360,10.0,13.0,77,0.00,,CLR,0.00,VWS V14.01,2013-02-28 18:50:00,
2013-02-28 12:53:00,26.9,20.7,30.27,NNE,26,9.0,10.0,77,0.00,,OVC026,0.00,VWS V14.01,2013-02-28 18:53:00,
2013-02-28 12:55:00,27.5,20.9,30.28,North,355,9.0,14.0,76,0.00,,CLR,0.00,VWS V14.01,2013-02-28 18:55:00,
2013-02-28 12:58:00,27.0,21.1,30.27,North,11,11.0,12.0,78,0.00,,OVC026,0.00,VWS V14.01,2013-02-28 18:58:00,
2013-02-28 13:00:00,27.4,20.5,30.28,North,9,11.0,12.0,75,0.00,,CLR,0.00,VWS V14.01,2013-02-28 19:00:00,
2013-02-28 13:03:00,27.0,20.8,30.27,North,5,8.0,10.0,77,0.00,,OVC026,0.00,VWS V14.01,2013-02-28 19:03:00,
2013-02-28 13:05:00,27.5,20.6,30.28,North,360,10.0,13.0,75,0.00,,CLR,0.00,VWS V14.01,2013-02-28 19:05:00,
2013-02-28 13:08:00,26.9,20.7,30.27,North,360,9.0,11.0,77,0.00,,OVC026,0.00,VWS V14.01,2013-02-28 19:08:00,
2013-02-28 13:10:00,27.5,20.6,30.28,North,350,12.0,14.0,75,0.00,,CLR,0.00,VWS V14.01,2013-02-28 19:10:00,
2013-02-28 13:13:00,27.1,20.9,30.27,North,360,12.0,13.0,77,0.00,,OVC026,0.00,VWS V14.01,2013-02-28 19:13:00,
2013-02-28 13:15:00,27.6,20.7,30.28,North,5,10.0,13.0,75,0.00,,CLR,0.00,VWS V14.01,2013-02-28 19:15:00,
2013-02-28 13:18:00,27.1,20.5,30.27,North,355,11.0,11.0,76,0.00,,OVC026,0.00,VWS V14.01,2013-02-28 19:18:00,
2013-02-28 13:20:00,27.5,20.6,30.27,North,355,10.0,12.0,75,0.00,,CLR,0.00,VWS V14.01,2013-02-28 19:20:00,
2013-02-28 13:23:00,27.2,20.6,30.28,North,355,8.0,11.0,76,0.00,,OVC026,0.00,VWS V14.01,2013-02-28 19:23:00,
2013-02-28 13:25:00,27.5,20.6,30.27,North,10,10.0,14.0,75,0.00,,CLR,0.00,VWS V14.01,2013-02-28 19:25:00,
2013-02-28 13:28:00,27.3,21.1,30.28,North,11,13.0,13.0,77,0.00,,OVC026,0.00,VWS V14.01,2013-02-28 19:28:00,
2013-02-28 13:30:00,27.4,20.5,30.27,North,360,14.0,15.0,75,0.00,,CLR,0.00,VWS V14.01,2013-02-28 19:30:00,
2013-02-28 13:34:00,27.2,21.0,30.28,North,5,13.0,13.0,77,0.00,,OVC026,0.00,VWS V14.01,2013-02-28 19:34:00,
2013-02-28 13:35:00,27.4,20.8,30.27,North,5,13.0,14.0,76,0.00,,CLR,0.00,VWS V14.01,2013-02-28 19:35:00,
2013-02-28 13:39:00,27.3,20.8,30.28,North,5,12.0,13.0,76,0.00,,OVC026,0.00,VWS V14.01,2013-02-28 19:39:00,
2013-02-28 13:40:00,27.3,20.8,30.27,North,355,10.0,13.0,76,0.00,,CLR,0.00,VWS V14.01,2013-02-28 19:40:00,
2013-02-28 13:44:00,27.2,21.0,30.28,North,11,11.0,12.0,77,0.00,,OVC026,0.00,VWS V14.01,2013-02-28 19:44:00,
2013-02-28 13:45:00,27.4,20.8,30.27,North,360,12.0,12.0,76,0.00,,CLR,0.00,VWS V14.01,2013-02-28 19:45:00,
2013-02-28 13:49:00,27.2,21.0,30.28,North,355,12.0,13.0,77,0.00,,OVC026,0.00,VWS V14.01,2013-02-28 19:49:00,
2013-02-28 13:50:00,27.3,20.8,30.27,North,360,11.0,13.0,76,0.00,,CLR,0.00,VWS V14.01,2013-02-28 19:50:00,
2013-02-28 13:54:00,27.4,20.8,30.28,North,360,10.0,13.0,76,0.00,,OVC026,0.00,VWS V14.01,2013-02-28 19:54:00,
2013-02-28 13:55:00,27.3,20.8,30.27,North,355,10.0,12.0,76,0.00,,CLR,0.00,VWS V14.01,2013-02-28 19:55:00,
2013-02-28 13:59:00,27.5,20.9,30.28,North,355,10.0,12.0,76,0.00,,OVC026,0.00,VWS V14.01,2013-02-28 19:59:00,
2013-02-28 14:00:00,27.3,20.8,30.27,North,355,10.0,12.0,76,0.00,,CLR,0.00,VWS V14.01,2013-02-28 20:00:00,
2013-02-28 14:04:00,27.5,20.6,30.28,North,360,10.0,13.0,75,0.00,,OVC026,0.00,VWS V14.01,2013-02-28 20:04:00,
2013-02-28 14:05:00,27.3,20.8,30.28,North,11,11.0,14.0,76,0.00,,CLR,0.00,VWS V14.01,2013-02-28 20:05:00,
2013-02-28 14:09:00,27.4,20.5,30.28,NNW,346,12.0,13.0,75,0.00,,OVC026,0.00,VWS V14.01,2013-02-28 20:09:00,
2013-02-28 14:10:00,27.2,20.6,30.27,North,5,10.0,13.0,76,0.00,,CLR,0.00,VWS V14.01,2013-02-28 20:10:00,
2013-02-28 14:14:00,27.6,20.7,30.28,North,350,8.0,13.0,75,0.00,,OVC026,0.00,VWS V14.01,2013-02-28 20:14:00,
2013-02-28 14:15:00,27.2,20.6,30.27,North,5,10.0,14.0,76,0.00,,CLR,0.00,VWS V14.01,2013-02-28 20:15:00,
2013-02-28 14:19:00,27.6,20.7,30.28,North,5,11.0,12.0,75,0.00,,OVC026,0.00,VWS V14.01,2013-02-28 20:19:00,
2013-02-28 14:20:00,27.2,20.6,30.28,NNE,15,10.0,13.0,76,0.00,,CLR,0.00,VWS V14.01,2013-02-28 20:20:00,
2013-02-28 14:24:00,27.5,20.6,30.27,North,9,9.0,12.0,75,0.00,,OVC026,0.00,VWS V14.01,2013-02-28 20:24:00,
2013-02-28 14:25:00,27.2,20.6,30.27,NNE,19,13.0,14.0,76,0.00,,CLR,0.00,VWS V14.01,2013-02-28 20:25:00,
2013-02-28 14:29:00,27.5,20.9,30.27,North,5,9.0,11.0,76,0.00,,OVC026,0.00,VWS V14.01,2013-02-28 20:29:00,
2013-02-28 14:30:00,27.1,20.5,30.27,North,355,9.0,15.0,76,0.00,,CLR,0.00,VWS V14.01,2013-02-28 20:30:00,
2013-02-28 14:34:00,27.4,20.5,30.27,North,9,12.0,14.0,75,0.00,,OVC028,0.00,VWS V14.01,2013-02-28 20:34:00,
2013-02-28 14:35:00,27.0,20.5,30.28,North,9,7.0,13.0,76,0.00,,CLR,0.00,VWS V14.01,2013-02-28 20:35:00,
2013-02-28 14:39:00,27.4,20.8,30.27,NNE,19,12.0,13.0,76,0.00,,OVC028,0.00,VWS V14.01,2013-02-28 20:39:00,
2013-02-28 14:40:00,27.1,20.5,30.28,North,11,11.0,14.0,76,0.00,,CLR,0.00,VWS V14.01,2013-02-28 20:40:00,
2013-02-28 14:44:00,27.3,20.8,30.27,North,11,9.0,11.0,76,0.00,,OVC028,0.00,VWS V14.01,2013-02-28 20:44:00,
2013-02-28 14:45:00,27.1,20.5,30.28,North,11,11.0,13.0,76,0.00,,CLR,0.00,VWS V14.01,2013-02-28 20:45:00,
2013-02-28 14:49:00,27.3,20.8,30.27,North,360,12.0,13.0,76,0.00,,OVC028,0.00,VWS V14.01,2013-02-28 20:49:00,
2013-02-28 14:50:00,27.1,20.5,30.28,NNE,13,9.0,13.0,76,0.00,,CLR,0.00,VWS V14.01,2013-02-28 20:50:00,
2013-02-28 14:54:00,27.3,20.8,30.27,North,5,9.0,11.0,76,0.00,,OVC028,0.00,VWS V14.01,2013-02-28 20:54:00,
2013-02-28 14:55:00,27.0,20.5,30.28,NNE,14,9.0,13.0,76,0.00,,CLR,0.00,VWS V14.01,2013-02-28 20:55:00,
2013-02-28 14:59:00,27.3,20.8,30.27,North,5,10.0,12.0,76,0.00,,OVC028,0.00,VWS V14.01,2013-02-28 20:59:00,
2013-02-28 15:00:00,26.9,20.4,30.28,North,5,10.0,13.0,76,0.00,,CLR,0.00,VWS V14.01,2013-02-28 21:00:00,
2013-02-28 15:05:00,27.3,20.8,30.27,North,355,14.0,14.0,76,0.00,,OVC028,0.00,VWS V14.01,2013-02-28 21:05:00,
2013-02-28 15:10:00,27.2,20.6,30.28,North,10,11.0,12.0,76,0.00,,OVC028,0.00,VWS V14.01,2013-02-28 21:10:00,
2013-02-28 15:15:00,27.2,20.6,30.28,North,5,10.0,12.0,76,0.00,,OVC028,0.00,VWS V14.01,2013-02-28 21:15:00,
2013-02-28 15:20:00,27.2,20.6,30.27,North,360,11.0,12.0,76,0.00,,OVC028,0.00,VWS V14.01,2013-02-28 21:20:00,
2013-02-28 15:25:00,27.2,20.6,30.27,NNE,19,10.0,12.0,76,0.00,,OVC028,0.00,VWS V14.01,2013-02-28 21:25:00,
2013-02-28 15:30:00,27.1,20.5,30.28,North,9,11.0,15.0,76,0.00,,OVC028,0.00,VWS V14.01,2013-02-28 21:30:00,
2013-02-28 15:35:00,27.1,20.5,30.28,NNE,22,10.0,13.0,76,0.00,,OVC028,0.00,VWS V14.01,2013-02-28 21:35:00,
2013-02-28 15:40:00,27.0,20.5,30.27,NNE,13,6.0,14.0,76,0.00,,OVC028,0.00,VWS V14.01,2013-02-28 21:40:00,
2013-02-28 15:45:00,27.1,20.5,30.28,NNE,24,12.0,13.0,76,0.00,,OVC028,0.00,VWS V14.01,2013-02-28 21:45:00,
2013-02-28 15:50:00,27.0,20.5,30.28,NNE,20,11.0,13.0,76,0.00,,OVC028,0.00,VWS V14.01,2013-02-28 21:50:00,
2013-02-28 15:55:00,27.0,20.5,30.28,NNE,14,10.0,13.0,76,0.00,,OVC030,0.00,VWS V14.01,2013-02-28 21:55:00,
2013-02-28 16:00:00,27.0,20.5,30.28,North,5,11.0,13.0,76,0.00,,OVC030,0.00,VWS V14.01,2013-02-28 22:00:00,
2013-02-28 16:05:00,26.9,20.4,30.28,NNE,12,10.0,12.0,76,0.00,,OVC030,0.00,VWS V14.01,2013-02-28 22:05:00,
2013-02-28 16:10:00,26.9,20.4,30.28,North,5,10.0,11.0,76,0.00,,OVC030,0.00,VWS V14.01,2013-02-28 22:10:00,
2013-02-28 16:15:00,26.9,20.7,30.28,North,360,10.0,10.0,77,0.00,,OVC030,0.00,VWS V14.01,2013-02-28 22:15:00,
2013-02-28 16:20:00,26.8,20.6,30.28,North,360,9.0,10.0,77,0.00,,OVC030,0.00,VWS V14.01,2013-02-28 22:20:00,
2013-02-28 16:25:00,26.8,20.6,30.28,North,5,10.0,11.0,77,0.00,,OVC030,0.00,VWS V14.01,2013-02-28 22:25:00,
2013-02-28 16:30:00,26.4,19.6,30.29,North,355,6.0,9.0,75,0.00,,CLR,0.00,VWS V14.01,2013-02-28 22:30:00,
2013-02-28 16:31:00,26.8,20.6,30.28,North,355,9.0,11.0,77,0.00,,OVC030,0.00,VWS V14.01,2013-02-28 22:31:00,
2013-02-28 16:35:00,26.2,19.4,30.30,North,360,6.0,7.0,75,0.00,,CLR,0.00,VWS V14.01,2013-02-28 22:35:00,
2013-02-28 16:36:00,26.8,20.3,30.28,NNW,345,7.0,12.0,76,0.00,,OVC030,0.00,VWS V14.01,2013-02-28 22:36:00,
2013-02-28 16:40:00,26.0,18.9,30.30,North,360,3.0,7.0,74,0.00,,CLR,0.00,VWS V14.01,2013-02-28 22:40:00,
2013-02-28 16:41:00,26.7,20.2,30.28,North,360,11.0,13.0,76,0.00,,OVC030,0.00,VWS V14.01,2013-02-28 22:41:00,
2013-02-28 16:45:00,25.6,18.8,30.30,North,355,5.0,7.0,75,0.00,,CLR,0.00,VWS V14.01,2013-02-28 22:45:00,
2013-02-28 16:46:00,26.7,19.9,30.28,North,5,10.0,12.0,75,0.00,,OVC030,0.00,VWS V14.01,2013-02-28 22:46:00,
2013-02-28 16:50:00,25.2,18.4,30.30,North,355,6.0,7.0,75,0.00,,CLR,0.00,VWS V14.01,2013-02-28 22:50:00,
2013-02-28 16:51:00,26.7,19.9,30.28,NNE,14,9.0,11.0,75,0.00,,OVC030,0.00,VWS V14.01,2013-02-28 22:51:00,
2013-02-28 16:55:00,24.7,17.9,30.30,North,355,6.0,6.0,75,0.00,,CLR,0.00,VWS V14.01,2013-02-28 22:55:00,
2013-02-28 16:56:00,26.7,19.9,30.28,NNE,16,9.0,12.0,75,0.00,,OVC030,0.00,VWS V14.01,2013-02-28 22:56:00,
2013-02-28 17:00:00,24.3,17.5,30.30,North,355,6.0,6.0,75,0.00,,CLR,0.00,VWS V14.01,2013-02-28 23:00:00,
2013-02-28 17:01:00,26.6,19.8,30.28,North,360,7.0,9.0,75,0.00,,OVC030,0.00,VWS V14.01,2013-02-28 23:01:00,
2013-02-28 17:05:00,23.9,17.5,30.30,NNW,344,5.0,6.0,76,0.00,,CLR,0.00,VWS V14.01,2013-02-28 23:05:00,
2013-02-28 17:06:00,26.6,19.8,30.29,NNW,342,7.0,11.0,75,0.00,,OVC030,0.00,VWS V14.01,2013-02-28 23:06:00,
2013-02-28 17:10:00,23.8,17.4,30.30,NNW,346,5.0,7.0,76,0.00,,CLR,0.00,VWS V14.01,2013-02-28 23:10:00,
2013-02-28 17:11:00,26.6,19.8,30.29,North,351,9.0,10.0,75,0.00,,OVC030,0.00,VWS V14.01,2013-02-28 23:11:00,
2013-02-28 17:15:00,23.7,17.0,30.31,NNW,344,4.0,6.0,75,0.00,,CLR,0.00,VWS V14.01,2013-02-28 23:15:00,
2013-02-28 17:16:00,26.6,19.8,30.29,North,355,8.0,11.0,75,0.00,,OVC030,0.00,VWS V14.01,2013-02-28 23:16:00,
2013-02-28 17:20:00,23.3,16.6,30.31,North,350,4.0,5.0,75,0.00,,CLR,0.00,VWS V14.01,2013-02-28 23:20:00,
2013-02-28 17:21:00,26.5,19.7,30.29,North,355,5.0,10.0,75,0.00,,OVC030,0.00,VWS V14.01,2013-02-28 23:21:00,
2013-02-28 17:25:00,23.1,16.7,30.31,NNW,342,4.0,5.0,76,0.00,,CLR,0.00,VWS V14.01,2013-02-28 23:25:00,
2013-02-28 17:26:00,26.5,19.7,30.29,North,355,6.0,9.0,75,0.00,,OVC030,0.00,VWS V14.01,2013-02-28 23:26:00,
2013-02-28 17:30:00,22.9,16.5,30.31,North,355,2.0,5.0,76,0.00,,CLR,0.00,VWS V14.01,2013-02-28 23:30:00,
2013-02-28 17:31:00,26.4,19.6,30.29,NNW,346,4.0,9.0,75,0.00,,OVC030,0.00,VWS V14.01,2013-02-28 23:31:00,
2013-02-28 17:35:00,22.7,16.3,30.32,North,355,3.0,4.0,76,0.00,,CLR,0.00,VWS V14.01,2013-02-28 23:35:00,
2013-02-28 17:36:00,26.3,19.5,30.29,North,350,6.0,7.0,75,0.00,,OVC030,0.00,VWS V14.01,2013-02-28 23:36:00,
2013-02-28 17:40:00,22.6,16.2,30.31,North,355,3.0,4.0,76,0.00,,CLR,0.00,VWS V14.01,2013-02-28 23:40:00,
2013-02-28 17:42:00,26.1,19.3,30.30,North,355,6.0,7.0,75,0.00,,OVC030,0.00,VWS V14.01,2013-02-28 23:42:00,
2013-02-28 17:45:00,22.4,16.0,30.32,NNW,338,3.0,4.0,76,0.00,,CLR,0.00,VWS V14.01,2013-02-28 23:45:00,
2013-02-28 17:47:00,25.7,18.9,30.30,North,349,5.0,7.0,75,0.00,,OVC030,0.00,VWS V14.01,2013-02-28 23:47:00,
2013-02-28 17:50:00,22.2,15.5,30.32,North,351,3.0,5.0,75,0.00,,CLR,0.00,VWS V14.01,2013-02-28 23:50:00,
2013-02-28 17:52:00,25.2,18.4,30.30,North,355,5.0,7.0,75,0.00,,OVC030,0.00,VWS V14.01,2013-02-28 23:52:00,
2013-02-28 17:55:00,21.7,15.0,30.32,North,351,3.0,4.0,75,0.00,,CLR,0.00,VWS V14.01,2013-02-28 23:55:00,
2013-02-28 17:57:00,24.8,18.0,30.30,North,360,5.0,6.0,75,0.00,,OVC030,0.00,VWS V14.01,2013-02-28 23:57:00,
2013-02-28 18:00:00,21.1,14.4,30.33,North,351,4.0,4.0,75,0.00,,CLR,0.00,VWS V14.01,2013-03-01 00:00:00,
2013-02-28 18:02:00,24.4,17.6,30.30,North,355,5.0,6.0,75,0.00,,OVC030,0.00,VWS V14.01,2013-03-01 00:02:00,
2013-02-28 18:05:00,20.7,14.4,30.33,North,350,3.0,4.0,76,0.00,,CLR,0.00,VWS V14.01,2013-03-01 00:05:00,
2013-02-28 18:07:00,23.9,17.5,30.30,NNW,348,4.0,6.0,76,0.00,,OVC030,0.00,VWS V14.01,2013-03-01 00:07:00,
2013-02-28 18:10:00,20.6,14.6,30.33,North,350,3.0,5.0,77,0.00,,CLR,0.00,VWS V14.01,2013-03-01 00:10:00,
2013-02-28 18:12:00,23.8,17.4,30.30,NNW,344,5.0,5.0,76,0.00,,OVC030,0.00,VWS V14.01,2013-03-01 00:12:00,
2013-02-28 18:15:00,20.4,14.4,30.33,North,350,2.0,3.0,77,0.00,,CLR,0.00,VWS V14.01,2013-03-01 00:15:00,
2013-02-28 18:17:00,23.8,17.4,30.31,NNW,344,4.0,6.0,76,0.00,,OVC030,0.00,VWS V14.01,2013-03-01 00:17:00,
2013-02-28 18:20:00,20.3,14.3,30.33,North,350,3.0,4.0,77,0.00,,CLR,0.00,VWS V14.01,2013-03-01 00:20:00,
2013-02-28 18:22:00,23.4,16.7,30.31,North,351,4.0,5.0,75,0.00,,OVC030,0.00,VWS V14.01,2013-03-01 00:22:00,
2013-02-28 18:25:00,20.3,14.6,30.33,North,350,3.0,3.0,78,0.00,,CLR,0.00,VWS V14.01,2013-03-01 00:25:00,
2013-02-28 18:27:00,23.1,16.7,30.31,NNW,342,3.0,5.0,76,0.00,,OVC030,0.00,VWS V14.01,2013-03-01 00:27:00,
2013-02-28 18:30:00,20.2,14.2,30.33,North,350,1.0,3.0,77,0.00,,CLR,0.00,VWS V14.01,2013-03-01 00:30:00,
2013-02-28 18:32:00,22.9,16.5,30.31,North,355,3.0,5.0,76,0.00,,OVC030,0.00,VWS V14.01,2013-03-01 00:32:00,
2013-02-28 18:35:00,20.0,14.3,30.33,North,350,1.0,3.0,78,0.00,,CLR,0.00,VWS V14.01,2013-03-01 00:35:00,
2013-02-28 18:37:00,22.8,16.4,30.32,North,355,3.0,4.0,76,0.00,,OVC030,0.00,VWS V14.01,2013-03-01 00:37:00,
2013-02-28 18:40:00,19.9,14.2,30.33,North,350,0.0,2.0,78,0.00,,CLR,0.00,VWS V14.01,2013-03-01 00:40:00,
2013-02-28 18:42:00,22.6,16.2,30.31,North,355,3.0,4.0,76,0.00,,OVC030,0.00,VWS V14.01,2013-03-01 00:42:00,
2013-02-28 18:45:00,19.9,14.2,30.33,NNE,26,2.0,3.0,78,0.00,,CLR,0.00,VWS V14.01,2013-03-01 00:45:00,
2013-02-28 18:47:00,22.5,16.1,30.32,NNW,339,4.0,4.0,76,0.00,,OVC030,0.00,VWS V14.01,2013-03-01 00:47:00,
2013-02-28 18:50:00,20.0,14.3,30.33,NNE,30,2.0,3.0,78,0.00,,CLR,0.00,VWS V14.01,2013-03-01 00:50:00,
2013-02-28 18:53:00,22.2,15.5,30.32,North,350,3.0,5.0,75,0.00,,OVC030,0.00,VWS V14.01,2013-03-01 00:53:00,
2013-02-28 18:55:00,20.0,14.3,30.33,NNE,31,2.0,3.0,78,0.00,,CLR,0.00,VWS V14.01,2013-03-01 00:55:00,
2013-02-28 18:58:00,21.8,15.1,30.32,North,350,2.0,4.0,75,0.00,,OVC030,0.00,VWS V14.01,2013-03-01 00:58:00,
2013-02-28 19:00:00,19.8,14.1,30.33,NE,45,1.0,3.0,78,0.00,,CLR,0.00,VWS V14.01,2013-03-01 01:00:00,
2013-02-28 19:03:00,21.1,14.4,30.33,North,350,3.0,4.0,75,0.00,,OVC030,0.00,VWS V14.01,2013-03-01 01:03:00,
2013-02-28 19:05:00,19.5,13.5,30.33,NE,46,2.0,3.0,77,0.00,,CLR,0.00,VWS V14.01,2013-03-01 01:05:00,
2013-02-28 19:08:00,20.7,14.4,30.33,North,350,3.0,4.0,76,0.00,,OVC030,0.00,VWS V14.01,2013-03-01 01:08:00,
2013-02-28 19:10:00,19.0,13.3,30.34,NNE,30,1.0,3.0,78,0.00,,CLR,0.00,VWS V14.01,2013-03-01 01:10:00,
2013-02-28 19:13:00,20.6,14.6,30.33,North,350,3.0,5.0,77,0.00,,OVC030,0.00,VWS V14.01,2013-03-01 01:13:00,
2013-02-28 19:15:00,18.6,13.2,30.33,NNE,30,2.0,3.0,79,0.00,,CLR,0.00,VWS V14.01,2013-03-01 01:15:00,
2013-02-28 19:18:00,20.4,14.4,30.33,North,350,2.0,3.0,77,0.00,,OVC030,0.00,VWS V14.01,2013-03-01 01:18:00,
2013-02-28 19:20:00,18.3,12.9,30.34,NNE,30,2.0,2.0,79,0.00,,CLR,0.00,VWS V14.01,2013-03-01 01:20:00,
2013-02-28 19:23:00,20.3,14.3,30.33,North,350,3.0,4.0,77,0.00,,OVC030,0.00,VWS V14.01,2013-03-01 01:23:00,
2013-02-28 19:25:00,18.1,13.0,30.34,North,5,3.0,4.0,80,0.00,,CLR,0.00,VWS V14.01,2013-03-01 01:25:00,
2013-02-28 19:28:00,20.3,14.6,30.33,North,350,3.0,3.0,78,0.00,,OVC030,0.00,VWS V14.01,2013-03-01 01:28:00,
2013-02-28 19:30:00,17.8,12.4,30.34,North,360,4.0,4.0,79,0.00,,CLR,0.00,VWS V14.01,2013-03-01 01:30:00,
2013-02-28 19:33:00,20.2,14.2,30.33,North,350,1.0,3.0,77,0.00,,CLR,0.00,VWS V14.01,2013-03-01 01:33:00,
2013-02-28 19:35:00,17.5,12.4,30.34,North,360,2.0,4.0,80,0.00,,CLR,0.00,VWS V14.01,2013-03-01 01:35:00,
2013-02-28 19:38:00,20.0,14.3,30.33,North,350,1.0,3.0,78,0.00,,CLR,0.00,VWS V14.01,2013-03-01 01:38:00,
2013-02-28 19:40:00,17.1,11.7,30.35,North,360,3.0,4.0,79,0.00,,CLR,0.00,VWS V14.01,2013-03-01 01:40:00,
2013-02-28 19:43:00,19.9,14.2,30.33,North,350,0.0,2.0,78,0.00,,CLR,0.00,VWS V14.01,2013-03-01 01:43:00,
2013-02-28 19:45:00,16.9,11.8,30.35,North,360,3.0,3.0,80,0.00,,CLR,0.00,VWS V14.01,2013-03-01 01:45:00,
2013-02-28 19:48:00,19.9,14.2,30.33,NNE,26,2.0,3.0,78,0.00,,CLR,0.00,VWS V14.01,2013-03-01 01:48:00,
2013-02-28 19:50:00,17.1,12.3,30.35,NE,36,3.0,4.0,81,0.00,,CLR,0.00,VWS V14.01,2013-03-01 01:50:00,
2013-02-28 19:53:00,20.0,14.3,30.33,NNE,30,2.0,3.0,78,0.00,,CLR,0.00,VWS V14.01,2013-03-01 01:53:00,
2013-02-28 19:55:00,17.6,12.8,30.35,NE,36,2.0,4.0,81,0.00,,CLR,0.00,VWS V14.01,2013-03-01 01:55:00,
2013-02-28 19:58:00,20.0,14.3,30.33,NNE,31,2.0,2.0,78,0.00,,CLR,0.00,VWS V14.01,2013-03-01 01:58:00,
2013-02-28 20:00:00,17.7,12.9,30.35,North,360,4.0,5.0,81,0.00,,CLR,0.00,VWS V14.01,2013-03-01 02:00:00,
2013-02-28 20:03:00,19.8,14.1,30.33,NE,46,0.0,1.0,78,0.00,,CLR,0.00,VWS V14.01,2013-03-01 02:03:00,
2013-02-28 20:05:00,17.9,13.1,30.35,NE,36,2.0,5.0,81,0.00,,CLR,0.00,VWS V14.01,2013-03-01 02:05:00,
2013-02-28 20:08:00,19.5,13.5,30.33,NE,46,3.0,3.0,77,0.00,,CLR,0.00,VWS V14.01,2013-03-01 02:08:00,
2013-02-28 20:10:00,17.8,13.0,30.34,NNE,22,3.0,4.0,81,0.00,,CLR,0.00,VWS V14.01,2013-03-01 02:10:00,
2013-02-28 20:13:00,18.9,13.2,30.34,NNE,30,2.0,2.0,78,0.00,,CLR,0.00,VWS V14.01,2013-03-01 02:13:00,
2013-02-28 20:15:00,17.6,12.5,30.34,NNE,22,4.0,5.0,80,0.00,,CLR,0.00,VWS V14.01,2013-03-01 02:15:00,
2013-02-28 20:18:00,18.6,13.2,30.33,NNE,30,2.0,2.0,79,0.00,,CLR,0.00,VWS V14.01,2013-03-01 02:18:00,
2013-02-28 20:20:00,17.3,12.2,30.35,NNE,23,2.0,4.0,80,0.00,,CLR,0.00,VWS V14.01,2013-03-01 02:20:00,
2013-02-28 20:23:00,18.3,12.9,30.34,NNE,30,2.0,2.0,79,0.00,,CLR,0.00,VWS V14.01,2013-03-01 02:23:00,
2013-02-28 20:25:00,17.1,12.0,30.35,NNE,23,1.0,3.0,80,0.00,,CLR,0.00,VWS V14.01,2013-03-01 02:25:00,
2013-02-28 20:28:00,18.1,12.7,30.34,North,360,3.0,4.0,79,0.00,,CLR,0.00,VWS V14.01,2013-03-01 02:28:00,
2013-02-28 20:30:00,17.0,12.2,30.35,NNE,22,0.0,2.0,81,0.00,,CLR,0.00,VWS V14.01,2013-03-01 02:30:00,
2013-02-28 20:33:00,17.7,12.3,30.34,North,360,3.0,4.0,79,0.00,,CLR,0.00,VWS V14.01,2013-03-01 02:33:00,
2013-02-28 20:35:00,17.3,12.8,30.35,NNE,22,2.0,2.0,82,0.00,,CLR,0.00,VWS V14.01,2013-03-01 02:35:00,
2013-02-28 20:38:00,17.5,12.1,30.34,North,360,3.0,4.0,79,0.00,,CLR,0.00,VWS V14.01,2013-03-01 02:38:00,
2013-02-28 20:40:00,17.7,12.9,30.35,North,9,2.0,3.0,81,0.00,,CLR,0.00,VWS V14.01,2013-03-01 02:40:00,
2013-02-28 20:44:00,17.0,11.6,30.35,North,360,2.0,3.0,79,0.00,,CLR,0.00,VWS V14.01,2013-03-01 02:44:00,
2013-02-28 20:45:00,17.5,12.4,30.35,North,350,4.0,4.0,80,0.00,,CLR,0.00,VWS V14.01,2013-03-01 02:45:00,
2013-02-28 20:49:00,16.9,12.1,30.35,North,360,1.0,3.0,81,0.00,,CLR,0.00,VWS V14.01,2013-03-01 02:49:00,
2013-02-28 20:50:00,17.0,11.6,30.35,NNE,16,3.0,7.0,79,0.00,,CLR,0.00,VWS V14.01,2013-03-01 02:50:00,
2013-02-28 20:54:00,17.2,12.4,30.35,NE,36,2.0,3.0,81,0.00,,CLR,0.00,VWS V14.01,2013-03-01 02:54:00,
2013-02-28 20:55:00,16.3,10.7,30.35,North,5,4.0,5.0,78,0.00,,CLR,0.00,VWS V14.01,2013-03-01 02:55:00,
2013-02-28 20:59:00,17.7,12.9,30.35,NE,36,2.0,3.0,81,0.00,,CLR,0.00,VWS V14.01,2013-03-01 02:59:00,
2013-02-28 21:00:00,15.9,10.6,30.35,North,11,3.0,5.0,79,0.00,,CLR,0.00,VWS V14.01,2013-03-01 03:00:00,
2013-02-28 21:04:00,17.7,12.9,30.35,North,5,2.0,4.0,81,0.00,,CLR,0.00,VWS V14.01,2013-03-01 03:04:00,
2013-02-28 21:05:00,15.5,10.2,30.35,North,11,2.0,4.0,79,0.00,,CLR,0.00,VWS V14.01,2013-03-01 03:05:00,
2013-02-28 21:09:00,17.9,13.1,30.35,NE,36,2.0,3.0,81,0.00,,CLR,0.00,VWS V14.01,2013-03-01 03:09:00,
2013-02-28 21:10:00,15.5,10.4,30.35,North,11,3.0,4.0,80,0.00,,CLR,0.00,VWS V14.01,2013-03-01 03:10:00,
2013-02-28 21:14:00,17.7,12.9,30.34,NNE,31,4.0,4.0,81,0.00,,CLR,0.00,VWS V14.01,2013-03-01 03:14:00,
2013-02-28 21:15:00,15.7,10.6,30.35,NNE,12,2.0,3.0,80,0.00,,CLR,0.00,VWS V14.01,2013-03-01 03:15:00,
2013-02-28 21:19:00,17.6,12.5,30.34,NNE,23,3.0,4.0,80,0.00,,CLR,0.00,VWS V14.01,2013-03-01 03:19:00,
2013-02-28 21:20:00,15.8,10.7,30.35,NNE,16,2.0,4.0,80,0.00,,CLR,0.00,VWS V14.01,2013-03-01 03:20:00,
2013-02-28 21:24:00,17.3,12.2,30.35,NNE,23,2.0,3.0,80,0.00,,CLR,0.00,VWS V14.01,2013-03-01 03:24:00,
2013-02-28 21:25:00,16.0,10.9,30.35,NNE,23,4.0,5.0,80,0.00,,CLR,0.00,VWS V14.01,2013-03-01 03:25:00,
2013-02-28 21:29:00,17.1,12.0,30.35,NNE,23,0.0,2.0,80,0.00,,CLR,0.00,VWS V14.01,2013-03-01 03:29:00,
2013-02-28 21:30:00,16.3,11.2,30.35,NNE,30,4.0,6.0,80,0.00,,CLR,0.00,VWS V14.01,2013-03-01 03:30:00,
2013-02-28 21:34:00,17.0,12.2,30.35,NNE,23,0.0,0.0,81,0.00,,CLR,0.00,VWS V14.01,2013-03-01 03:34:00,
2013-02-28 21:35:00,16.6,11.2,30.35,NE,35,5.0,6.0,79,0.00,,CLR,0.00,VWS V14.01,2013-03-01 03:35:00,
2013-02-28 21:39:00,17.4,12.9,30.35,NNE,22,2.0,3.0,82,0.00,,CLR,0.00,VWS V14.01,2013-03-01 03:39:00,
2013-02-28 21:40:00,16.8,11.1,30.35,NNE,30,3.0,6.0,78,0.00,,CLR,0.00,VWS V14.01,2013-03-01 03:40:00,
2013-02-28 21:44:00,17.7,12.9,30.35,North,360,3.0,3.0,81,0.00,,CLR,0.00,VWS V14.01,2013-03-01 03:44:00,
2013-02-28 21:45:00,16.8,11.1,30.35,NNE,31,3.0,5.0,78,0.00,,CLR,0.00,VWS V14.01,2013-03-01 03:45:00,
2013-02-28 21:49:00,17.5,12.4,30.35,North,10,5.0,6.0,80,0.00,,CLR,0.00,VWS V14.01,2013-03-01 03:49:00,
2013-02-28 21:50:00,16.7,11.1,30.35,NNE,32,3.0,5.0,78,0.00,,CLR,0.00,VWS V14.01,2013-03-01 03:50:00,
2013-02-28 21:54:00,16.8,11.4,30.35,NNE,15,3.0,4.0,79,0.00,,CLR,0.00,VWS V14.01,2013-03-01 03:54:00,
2013-02-28 21:55:00,16.7,10.8,30.35,NNE,31,3.0,5.0,77,0.00,,CLR,0.00,VWS V14.01,2013-03-01 03:55:00,
2013-02-28 21:59:00,16.1,10.8,30.35,North,9,4.0,5.0,79,0.00,,CLR,0.00,VWS V14.01,2013-03-01 03:59:00,
2013-02-28 22:00:00,16.8,11.1,30.35,NNE,31,3.0,4.0,78,0.00,,CLR,0.00,VWS V14.01,2013-03-01 04:00:00,
2013-02-28 22:05:00,15.7,10.4,30.35,North,11,3.0,4.0,79,0.00,,CLR,0.00,VWS V14.01,2013-03-01 04:05:00,
2013-02-28 22:10:00,15.5,10.2,30.35,North,11,3.0,4.0,79,0.00,,CLR,0.00,VWS V14.01,2013-03-01 04:10:00,
2013-02-28 22:15:00,15.5,10.4,30.35,NNE,12,3.0,3.0,80,0.00,,CLR,0.00,VWS V14.01,2013-03-01 04:15:00,
2013-02-28 22:20:00,15.7,10.6,30.35,NNE,12,3.0,3.0,80,0.00,,CLR,0.00,VWS V14.01,2013-03-01 04:20:00,
2013-02-28 22:25:00,15.9,10.8,30.35,NNE,20,3.0,5.0,80,0.00,,CLR,0.00,VWS V14.01,2013-03-01 04:25:00,
2013-02-28 22:30:00,16.1,11.0,30.35,NNE,27,5.0,5.0,80,0.00,,CLR,0.00,VWS V14.01,2013-03-01 04:30:00,
2013-02-28 22:35:00,16.4,11.3,30.35,NNE,33,4.0,6.0,80,0.00,,CLR,0.00,VWS V14.01,2013-03-01 04:35:00,
2013-02-28 22:40:00,16.7,11.3,30.35,NNE,32,4.0,6.0,79,0.00,,CLR,0.00,VWS V14.01,2013-03-01 04:40:00,
2013-02-28 22:45:00,16.8,11.1,30.35,NNE,26,4.0,5.0,78,0.00,,CLR,0.00,VWS V14.01,2013-03-01 04:45:00,
2013-02-28 22:50:00,16.8,11.1,30.35,NNE,31,3.0,5.0,78,0.00,,CLR,0.00,VWS V14.01,2013-03-01 04:50:00,
2013-02-28 22:55:00,16.7,10.8,30.35,NNE,31,3.0,4.0,77,0.00,,CLR,0.00,VWS V14.01,2013-03-01 04:55:00,
2013-02-28 23:00:00,16.7,10.8,30.35,NNE,31,4.0,4.0,77,0.00,,CLR,0.00,VWS V14.01,2013-03-01 05:00:00,
2013-02-28 23:01:00,16.7,11.1,30.35,NNE,30,3.0,4.0,78,0.00,,CLR,0.00,VWS V14.01,2013-03-01 05:01:00,
2013-02-28 23:05:00,16.5,10.3,30.35,NNE,22,3.0,5.0,76,0.00,,CLR,0.00,VWS V14.01,2013-03-01 05:05:00,
2013-02-28 23:06:00,16.7,10.8,30.35,NNE,31,3.0,4.0,77,0.00,,CLR,0.00,VWS V14.01,2013-03-01 05:06:00,
2013-02-28 23:10:00,16.2,10.0,30.35,NNE,22,3.0,4.0,76,0.00,,CLR,0.00,VWS V14.01,2013-03-01 05:10:00,
2013-02-28 23:11:00,16.7,10.8,30.35,NE,38,4.0,7.0,77,0.00,,CLR,0.00,VWS V14.01,2013-03-01 05:11:00,
2013-02-28 23:15:00,15.7,9.2,30.35,NNE,22,3.0,4.0,75,0.00,,CLR,0.00,VWS V14.01,2013-03-01 05:15:00,
2013-02-28 23:16:00,17.1,11.4,30.35,NE,36,6.0,9.0,78,0.00,,CLR,0.00,VWS V14.01,2013-03-01 05:16:00,
2013-02-28 23:20:00,15.3,9.1,30.36,NNE,23,4.0,5.0,76,0.00,,CLR,0.00,VWS V14.01,2013-03-01 05:20:00,
2013-02-28 23:21:00,18.2,12.5,30.35,NE,40,4.0,7.0,78,0.00,,CLR,0.00,VWS V14.01,2013-03-01 05:21:00,
2013-02-28 23:25:00,14.9,9.0,30.36,NNE,21,4.0,7.0,77,0.00,,CLR,0.00,VWS V14.01,2013-03-01 05:25:00,
2013-02-28 23:26:00,19.0,13.0,30.35,NNE,19,3.0,7.0,77,0.00,,CLR,0.00,VWS V14.01,2013-03-01 05:26:00,
2013-02-28 23:30:00,14.7,9.1,30.36,NNE,29,5.0,7.0,78,0.00,,CLR,0.00,VWS V14.01,2013-03-01 05:30:00,
2013-02-28 23:31:00,19.4,12.8,30.35,NNE,29,7.0,7.0,75,0.00,,CLR,0.00,VWS V14.01,2013-03-01 05:31:00,
2013-02-28 23:35:00,14.6,9.0,30.36,NNE,32,5.0,6.0,78,0.00,,CLR,0.00,VWS V14.01,2013-03-01 05:35:00,
2013-02-28 23:36:00,19.1,11.9,30.35,NNE,27,5.0,7.0,73,0.00,,CLR,0.00,VWS V14.01,2013-03-01 05:36:00,
2013-02-28 23:40:00,15.0,9.7,30.36,NNE,22,5.0,7.0,79,0.00,,CLR,0.00,VWS V14.01,2013-03-01 05:40:00,
2013-02-28 23:41:00,18.2,11.0,30.35,NNE,29,4.0,7.0,73,0.00,,CLR,0.00,VWS V14.01,2013-03-01 05:41:00,
2013-02-28 23:45:00,15.1,9.8,30.36,NNE,30,4.0,6.0,79,0.00,,CLR,0.00,VWS V14.01,2013-03-01 05:45:00,
2013-02-28 23:46:00,17.5,10.6,30.35,NNE,28,4.0,6.0,74,0.00,,CLR,0.00,VWS V14.01,2013-03-01 05:46:00,
2013-02-28 23:50:00,15.2,9.9,30.36,NNE,27,4.0,6.0,79,0.00,,CLR,0.00,VWS V14.01,2013-03-01 05:50:00,
2013-02-28 23:51:00,17.1,10.6,30.35,NE,38,4.0,6.0,75,0.00,,CLR,0.00,VWS V14.01,2013-03-01 05:51:00,
2013-02-28 23:55:00,15.2,9.9,30.36,NNE,27,4.0,4.0,79,0.00,,CLR,0.00,VWS V14.01,2013-03-01 05:55:00,
2013-02-28 23:56:00,16.8,10.3,30.35,NNE,26,4.0,6.0,75,0.00,,CLR,0.00,VWS V14.01,2013-03-01 05:56:00,